Location: Moena
(46.3667°N, 11.6500°E)
Time: 13:37:30
(UTC+00:00)

Cosmos 2333 Rocket - Pass Details

Date: 16 June 2021
Orbit: 841 x 861 km, 70.8° (Epoch: 26 July)

Event Time Altitude Azimuth Distance (km) Brightness Sun altitude
Exits shadow 21:09:01 17° 181° (S) 2,045 3.7 -14.7°
Maximum altitude 21:13:19 53° 110° (ESE) 1,049 2.4 -15.1°
Drops below altitude 10° 21:18:52 10° 35° (NE) 2,494 5.0 -15.5°
Sets 21:21:22 0° 31° (NNE) 3,431 5.8 -15.7°
